Theta_e
351 351 351 351 352 352 353 354 353 352 352 353 353 353 353 354 354 355 354 354 353 352 350 348 347 343 339 335 330 328 328 327 326 327 326 326 326 328 329 329 330 331 330 328 327 326 326 326 328 331 335 337 339 339 339 339 340 341 341 342 347 349 346
350 351 352 351 352 352 352 353 353 353 352 353 354 354 354 355 355 355 355 355 354 353 352 350 349 346 342 338 335 331 329 327 327 326 326 326 326 326 327 327 327 327 327 327 326 325 325 326 326 327 329 333 336 337 337 338 338 340 341 340 342 344 342
350 351 352 352 353 353 352 353 353 353 353 352 354 354 355 355 355 355 355 355 355 355 353 352 350 349 345 341 339 337 333 330 327 326 325 325 325 325 326 326 326 326 326 326 326 326 326 326 326 326 327 329 331 335 337 338 338 339 340 339 340 341 340
350 352 353 353 353 353 353 353 353 353 353 352 353 354 355 355 355 355 356 356 356 356 355 354 352 351 349 346 343 340 338 335 331 328 326 325 325 325 326 325 325 325 325 325 325 326 326 325 325 325 326 326 327 330 333 336 337 339 340 338 339 339 339
350 351 352 353 353 352 353 353 354 354 353 353 353 354 355 355 355 355 356 357 356 357 356 355 354 353 352 349 346 343 340 339 336 333 330 328 326 325 325 325 325 325 324 324 324 325 325 325 326 326 327 327 327 327 329 332 334 336 339 339 338 338 338
351 352 353 353 352 352 353 353 355 355 353 353 354 354 355 355 355 355 356 356 356 357 357 357 355 354 353 352 350 346 343 341 339 337 335 332 330 328 326 326 326 326 325 325 324 324 324 325 325 326 328 328 328 328 327 328 330 333 336 338 338 338 337
351 352 352 352 353 354 353 353 354 355 355 354 354 354 355 355 355 355 356 356 357 357 357 357 357 355 354 353 352 350 347 343 341 339 337 336 334 332 330 329 329 329 328 327 326 325 325 325 325 326 328 331 332 331 329 328 329 330 333 335 336 337 337
350 351 352 352 352 352 353 353 353 354 355 355 354 354 355 355 356 355 356 356 356 357 357 358 358 357 355 354 353 352 350 346 343 340 339 337 337 335 333 332 332 331 330 329 328 327 326 326 326 325 328 332 334 333 332 330 330 331 332 333 334 335 336
350 350 351 351 352 352 352 353 353 354 355 356 356 355 356 356 355 356 356 356 356 357 357 358 358 357 356 355 354 353 352 349 345 342 340 340 339 338 337 336 335 334 333 332 330 329 327 326 326 326 327 331 333 333 333 331 331 332 332 332 333 333 334
350 350 349 351 352 352 351 351 351 353 356 357 357 357 356 356 356 356 356 357 357 357 357 358 359 358 358 357 355 354 353 352 349 345 342 341 341 341 339 338 337 336 335 333 333 331 329 327 328 328 328 330 331 331 332 332 331 331 332 333 333 333 333
349 349 349 350 351 351 353 353 352 353 355 357 357 357 357 357 356 357 357 357 358 358 358 359 359 359 359 358 358 357 355 354 351 348 345 343 342 342 341 340 338 337 336 335 335 334 331 329 331 332 331 330 329 329 330 330 330 330 330 331 332 333 333
350 350 349 350 350 352 353 353 353 354 355 356 356 356 356 356 357 356 357 357 357 357 358 359 360 360 360 360 359 359 358 356 353 350 347 344 343 342 342 342 339 337 335 335 335 336 334 332 333 334 334 332 331 330 329 329 329 329 329 330 331 331 332
348 349 350 351 352 352 351 352 351 353 355 356 356 356 356 356 356 356 356 356 357 357 357 358 359 360 360 361 361 360 359 357 354 352 348 345 344 343 343 342 341 338 336 335 336 337 338 336 335 335 335 335 334 333 331 330 330 331 330 329 330 330 330
348 349 350 351 351 350 350 351 352 353 354 356 356 355 355 355 355 355 356 356 356 357 357 358 359 358 359 362 362 361 360 358 356 353 349 346 344 344 344 343 342 340 338 337 337 337 339 338 336 336 336 337 336 335 334 333 333 332 331 331 331 331 331
348 350 351 354 353 350 349 350 351 352 354 355 356 355 355 355 355 356 356 357 357 357 357 358 357 356 359 362 363 362 360 359 356 355 352 349 346 345 345 343 343 343 341 340 338 338 338 338 338 337 338 339 339 338 337 337 336 334 333 333 332 333 333
347 348 350 351 353 354 354 353 353 354 354 354 354 354 355 356 355 355 356 356 356 357 357 356 357 359 359 362 363 363 362 360 358 356 354 352 348 345 345 343 343 345 345 343 341 340 340 340 340 340 340 340 340 339 340 339 338 336 334 333 333 333 334
344 346 347 347 348 351 354 356 356 357 358 357 356 355 355 356 356 355 356 357 357 357 358 357 359 360 360 361 362 363 363 362 359 357 355 353 349 347 345 344 344 345 346 345 345 345 344 343 344 345 343 343 342 341 340 339 338 336 336 335 334 334 335
341 342 344 344 344 346 349 353 355 356 357 356 357 357 355 355 356 356 356 356 357 357 358 358 359 360 360 361 362 363 364 363 360 358 356 353 351 348 346 346 346 345 347 347 347 348 348 347 347 348 348 346 345 344 342 339 337 336 334 334 334 334 335
338 338 340 341 341 342 344 346 348 353 356 357 357 356 354 355 356 357 356 357 357 358 358 358 358 359 359 360 362 364 364 363 361 359 357 355 353 351 349 348 348 348 348 348 348 349 350 350 349 350 352 351 350 348 345 342 340 337 335 334 333 333 334
335 335 336 338 338 340 342 341 340 344 351 356 358 357 354 353 355 357 357 357 358 358 358 357 357 357 359 360 362 364 364 364 363 360 358 356 355 353 352 350 350 349 350 350 350 350 351 351 350 351 352 353 353 352 349 345 342 340 338 335 333 332 332
333 334 334 335 336 338 340 341 341 341 345 352 358 359 358 355 354 355 356 357 358 358 356 355 356 358 358 360 363 365 365 364 364 361 359 358 357 356 354 352 351 351 351 352 353 352 351 351 352 352 351 352 353 353 352 350 346 343 342 338 335 334 334
332 332 333 335 336 337 339 340 342 343 343 346 352 357 360 359 357 355 355 356 356 356 355 355 355 357 358 358 361 365 365 365 364 362 360 358 358 356 356 354 352 352 353 353 354 354 353 353 353 353 351 351 352 353 353 352 350 348 347 342 339 337 338
329 330 332 336 337 338 340 340 341 342 342 341 343 349 356 359 359 357 355 354 354 355 356 355 355 357 358 357 358 363 365 364 364 363 361 359 358 357 356 356 353 351 353 355 355 354 355 354 354 354 353 351 351 352 353 353 353 351 350 347 344 344 344
327 328 331 336 338 339 340 342 341 342 342 342 341 342 346 351 355 356 356 355 354 353 353 354 354 356 356 355 355 361 364 364 363 363 361 360 358 357 357 356 355 353 352 354 356 355 354 354 354 355 354 352 351 351 352 353 353 353 351 350 349 349 349
326 328 332 335 337 338 340 342 342 341 342 342 341 341 341 344 349 356 356 355 355 353 352 353 354 355 354 353 353 359 363 364 363 363 362 361 359 358 357 357 357 356 353 353 355 355 355 355 355 355 355 354 352 351 350 352 352 352 352 351 351 352 352
326 329 333 335 337 338 340 341 342 342 341 342 341 341 341 342 348 355 357 355 355 356 355 354 353 354 355 355 356 360 363 364 363 363 362 361 360 359 358 358 358 357 356 354 354 355 355 355 355 354 355 354 354 353 352 351 351 351 352 352 352 352 353
325 329 332 335 337 338 339 341 342 343 343 343 343 341 341 341 342 349 355 357 356 355 355 355 354 352 354 356 357 361 364 363 363 363 362 362 361 360 359 359 358 358 357 355 354 354 356 355 355 355 355 355 355 355 354 352 350 349 349 349 349 349 352
324 328 331 334 336 338 339 340 340 342 343 345 346 346 347 348 346 347 353 357 356 354 353 355 355 353 353 355 357 360 364 364 363 363 363 362 362 361 360 359 359 359 359 357 355 354 355 355 356 355 356 355 356 356 354 353 351 349 348 347 346 347 349
322 327 330 333 335 337 337 339 341 343 345 347 350 353 355 357 356 354 354 357 357 354 354 355 357 353 351 353 355 357 362 365 364 364 364 363 362 361 362 361 361 360 360 359 357 356 355 355 356 356 357 357 357 356 356 354 353 352 351 350 349 349 349
321 326 329 331 333 335 337 340 342 344 346 349 352 355 358 360 362 361 359 359 358 357 357 357 357 353 350 351 352 353 359 363 365 365 364 364 364 363 363 362 362 361 361 360 359 357 356 355 356 357 358 359 358 358 357 356 356 355 354 353 353 353 352
321 326 328 330 332 335 338 340 342 344 347 350 353 355 357 361 363 364 363 359 358 360 359 357 356 352 349 349 350 352 358 363 365 365 365 365 365 364 365 364 364 363 363 361 360 359 357 356 356 356 358 359 360 359 358 357 357 357 356 355 355 355 355
320 325 327 328 331 334 336 338 341 344 348 350 352 354 357 359 362 363 362 360 358 358 358 355 353 352 350 350 349 352 358 363 365 365 365 365 365 365 365 365 364 364 363 363 362 361 359 357 356 356 356 358 359 359 358 358 359 358 358 356 356 356 356
320 323 325 326 328 330 332 334 337 342 346 349 351 353 355 358 361 362 363 362 358 356 357 354 350 348 348 351 354 356 360 363 365 366 366 366 366 367 367 367 366 365 365 365 365 363 361 359 357 356 356 357 357 358 357 357 358 359 358 358 357 356 355
320 322 323 325 327 328 329 331 333 337 342 345 347 350 353 356 358 359 362 364 362 359 358 354 349 348 350 353 358 361 362 364 365 365 366 367 368 368 368 368 367 366 366 366 365 365 363 362 359 358 356 355 355 356 357 357 358 357 356 355 353 353 354
320 321 322 324 324 325 326 328 328 332 337 341 343 348 351 353 355 357 360 363 364 364 363 358 353 353 355 356 360 362 361 363 365 366 366 368 368 369 369 368 367 367 367 367 366 364 364 362 360 358 356 355 354 353 354 355 354 352 351 349 349 349 352
319 320 322 322 322 322 324 324 325 329 334 338 341 346 349 349 352 355 358 360 363 365 368 367 362 360 360 359 361 362 362 362 365 365 366 367 368 368 369 369 368 367 367 367 366 365 364 362 358 355 353 353 352 350 349 348 347 346 348 349 350 351 352
319 320 321 321 321 321 321 322 324 328 332 335 339 343 345 346 349 352 355 358 360 364 369 370 367 364 364 363 362 363 363 363 365 365 366 367 368 369 369 369 369 368 367 367 366 365 365 363 361 358 356 354 352 351 350 349 348 349 349 351 352 352 352
318 319 320 320 321 321 321 320 322 325 329 332 335 339 342 344 346 349 352 355 358 363 367 369 369 368 367 366 365 365 364 364 366 367 367 368 369 368 368 369 369 368 367 367 366 366 365 364 364 362 359 358 356 355 355 354 353 352 352 352 353 353 352
Wind_Speed
41 42 42 41 40 40 42 44 43 42 42 44 45 44 43 44 44 45 46 47 46 46 47 46 45 44 42 41 40 39 38 37 38 38 37 34 32 31 30 28 27 27 25 23 19 16 14 12 12 12 13 14 13 13 12 11 11 11 10 12 13 12 10
40 41 42 42 42 42 42 44 45 45 44 44 46 45 44 45 45 46 46 47 47 47 47 48 47 46 43 41 40 40 40 39 39 38 38 37 35 33 31 30 28 28 27 25 22 19 16 14 14 13 12 13 14 14 13 12 12 12 11 11 12 13 11
41 40 41 43 44 44 43 44 45 46 45 45 47 48 47 46 46 47 47 47 47 47 47 48 48 47 45 43 41 41 40 41 40 40 39 38 37 35 33 32 30 29 28 26 25 23 20 18 17 16 14 13 13 13 14 13 13 13 13 12 12 13 12
41 41 43 43 43 43 42 43 46 47 46 46 47 49 49 49 48 47 47 47 47 47 47 48 48 47 46 45 44 42 41 41 41 41 40 39 38 36 35 34 33 31 30 28 26 25 23 21 20 19 18 16 14 14 14 14 13 12 13 13 13 13 13
40 39 40 41 41 43 42 43 46 48 48 46 46 48 49 49 48 47 47 47 47 46 46 45 46 47 46 46 45 44 42 40 41 41 41 40 39 38 38 36 35 33 32 30 28 27 25 24 23 22 21 20 18 16 16 15 14 14 13 14 13 13 13
36 35 36 38 39 41 44 44 45 47 48 47 46 47 48 48 47 48 47 47 46 46 45 45 45 45 46 47 46 46 44 42 41 41 41 41 40 40 40 38 37 35 33 32 30 29 27 26 25 24 23 22 21 20 18 17 17 16 15 15 14 14 14
37 37 37 39 40 41 42 44 45 46 46 47 46 46 47 47 47 47 47 47 47 46 46 46 46 45 45 46 46 46 46 45 43 42 41 41 41 41 41 40 39 37 35 34 32 31 29 28 27 26 24 23 23 22 20 19 18 18 17 17 16 15 15
40 41 40 40 42 42 42 43 44 44 43 44 46 46 47 48 47 46 47 48 48 47 48 47 47 46 44 44 45 47 47 46 45 44 43 42 42 41 41 41 40 39 38 36 34 33 31 30 29 28 27 25 24 23 22 20 19 19 18 18 18 17 17
43 43 45 44 43 42 42 44 44 43 44 44 45 46 47 48 48 47 47 48 49 48 48 48 47 46 44 43 44 46 47 47 46 45 44 43 43 42 41 41 40 39 39 38 37 35 33 32 31 30 29 28 27 25 24 22 21 20 20 19 19 19 19
44 43 42 43 43 42 41 42 42 42 43 44 45 46 47 48 49 49 47 48 49 49 48 48 47 46 45 43 43 45 47 48 47 47 46 45 44 43 41 40 39 39 40 39 38 37 35 33 32 32 31 30 30 28 27 25 23 22 22 20 19 19 19
43 44 44 44 44 44 42 41 41 43 44 45 46 47 48 49 50 51 50 48 48 49 49 48 47 46 45 43 42 44 47 49 49 48 48 46 45 43 42 40 39 39 39 40 39 38 36 35 34 33 33 32 32 30 29 27 25 24 24 22 21 20 19
45 44 42 45 46 46 45 44 44 44 44 45 47 48 50 51 51 52 52 51 50 50 50 48 46 45 43 42 41 43 46 49 50 50 49 48 46 44 42 41 40 39 39 40 40 39 37 36 35 35 34 34 33 32 30 29 27 26 25 24 23 22 21
41 49 45 46 49 47 45 46 46 46 45 45 45 47 49 50 51 53 53 53 53 52 51 49 46 44 43 42 41 42 45 49 51 51 51 49 47 45 43 42 41 40 39 39 39 39 38 37 36 35 35 34 34 33 31 30 29 28 27 26 25 24 23
16 30 31 31 40 45 46 46 45 45 46 46 45 46 48 49 50 51 52 54 54 53 52 50 47 45 44 43 43 42 45 48 51 51 51 50 48 46 44 43 42 40 39 39 39 39 39 38 37 36 35 35 34 33 32 31 30 30 29 28 27 26 25
34 20 15 17 11 25 36 42 47 48 48 47 46 45 45 47 48 49 50 52 52 52 52 50 48 46 44 44 46 45 45 47 49 50 51 50 49 47 46 44 43 41 40 39 39 39 39 39 37 36 36 35 34 34 33 33 32 31 30 29 28 28 27
33 30 31 36 31 17 11 15 27 39 45 46 47 47 47 47 48 48 48 50 50 49 49 49 47 46 45 46 48 47 45 46 48 50 51 51 50 48 47 45 43 42 41 40 39 38 39 39 39 38 36 35 35 34 34 34 33 33 32 30 29 29 28
30 30 31 34 33 28 25 20 11 5 19 28 33 36 39 40 41 42 42 43 44 43 43 45 47 46 46 48 49 47 45 45 48 50 50 51 51 49 47 46 44 43 42 41 39 38 38 39 40 40 38 36 35 34 34 34 34 33 32 31 30 30 29
29 29 30 30 29 27 27 26 23 18 8 7 18 24 27 27 30 35 36 35 35 35 34 37 42 46 48 47 47 46 47 46 47 49 51 51 52 50 48 47 46 44 43 42 41 39 38 39 41 41 39 38 36 35 34 33 32 32 32 31 31 30 30
26 27 27 27 26 24 24 22 20 22 20 10 6 21 29 26 25 31 37 38 37 36 33 30 32 39 45 48 47 47 47 47 47 49 51 51 51 50 48 47 47 46 45 44 42 40 39 39 40 41 40 39 37 36 34 32 31 30 30 29 29 29 29
25 25 25 26 25 22 21 18 16 17 18 16 10 7 24 30 29 29 32 37 40 40 38 36 34 33 35 40 46 48 48 48 48 49 50 51 51 50 49 49 48 47 46 45 44 43 41 40 39 40 41 40 38 37 36 33 31 29 28 27 27 27 28
26 26 25 26 25 24 21 16 12 12 10 10 12 7 6 18 26 26 24 29 36 36 37 39 40 39 36 35 40 47 49 49 48 49 50 50 50 50 50 50 49 48 47 46 45 45 43 42 40 40 40 41 40 38 37 35 32 30 28 26 26 26 28
25 26 26 26 25 23 21 17 13 12 10 7 6 5 2 3 11 17 20 26 31 32 33 37 41 44 44 42 42 46 51 51 49 49 50 50 50 50 50 50 50 49 48 46 46 45 44 43 42 40 40 41 41 40 38 37 34 31 29 26 24 25 27
23 26 27 26 25 23 22 20 17 16 14 11 9 5 3 4 6 10 16 24 30 32 33 37 41 45 49 49 47 48 52 53 51 50 50 51 51 51 51 51 50 50 49 47 46 46 45 45 44 42 40 40 41 42 40 38 36 33 31 28 26 25 25
25 27 28 27 26 26 25 22 20 18 16 15 12 9 8 9 10 11 14 19 25 31 35 38 41 44 47 50 48 48 52 54 53 52 51 51 52 52 51 51 50 50 50 48 47 46 45 45 44 43 41 40 41 42 41 39 37 35 33 31 28 26 25
29 29 28 26 25 26 27 25 22 20 18 18 16 14 12 12 13 15 17 18 20 26 35 42 43 43 46 48 46 46 52 55 54 53 52 52 52 52 51 50 50 49 50 49 48 45 44 44 43 43 42 41 41 41 42 41 39 37 35 33 30 29 27
30 30 29 27 25 25 26 26 24 22 21 21 20 19 17 16 16 16 18 21 22 25 32 40 42 42 44 47 45 45 51 56 55 53 53 52 51 51 51 50 49 48 49 50 48 45 43 43 43 43 43 42 41 41 41 42 41 40 38 35 33 32 30
28 28 27 27 26 25 27 27 25 24 23 22 22 22 21 20 20 21 21 22 25 29 33 36 40 42 43 44 46 47 51 55 54 53 53 51 50 50 50 49 49 48 48 49 49 47 44 42 42 42 42 42 42 41 41 41 40 41 40 39 37 35 33
28 27 27 27 25 25 27 27 27 26 24 22 21 20 20 20 22 24 25 26 27 32 36 35 37 43 45 44 45 46 49 52 53 52 51 50 49 49 49 48 48 48 47 48 49 48 47 44 42 41 42 42 42 42 41 40 39 38 38 38 38 38 37
27 27 27 27 26 25 25 26 26 26 25 22 20 17 16 18 21 23 27 29 30 33 36 34 35 42 47 45 44 45 46 49 51 50 49 49 48 49 48 47 47 47 46 47 48 49 48 46 44 42 41 41 41 40 40 39 38 37 36 35 35 36 36
25 26 25 25 25 24 24 24 24 24 24 22 20 18 16 17 21 23 27 31 31 32 33 33 34 40 45 46 45 45 46 48 50 49 48 48 47 47 47 47 47 46 46 47 47 48 49 48 46 44 42 41 40 39 37 36 36 35 33 32 31 31 31
23 24 23 24 25 22 21 22 23 23 23 21 18 17 16 17 20 24 27 32 34 33 32 32 35 39 43 45 46 46 47 48 49 48 47 47 47 47 46 46 47 46 47 47 47 48 50 50 49 47 44 42 40 39 37 35 33 33 32 30 29 27 26
22 23 22 24 25 23 21 22 22 22 21 18 15 15 16 18 20 23 25 29 34 34 31 32 36 40 42 45 47 49 49 49 48 47 46 46 45 46 46 46 47 47 47 47 48 49 50 50 50 49 47 44 42 40 38 35 34 33 32 30 28 27 26
20 21 21 23 25 24 23 23 23 21 20 17 14 14 15 17 18 20 20 23 29 31 29 30 37 41 42 44 47 49 50 49 47 45 45 44 44 44 44 45 46 47 48 48 48 50 50 50 51 51 50 48 45 42 39 37 35 34 32 31 30 30 29
17 18 18 20 23 25 24 24 24 22 20 17 15 15 14 14 17 18 17 17 22 26 28 30 35 39 42 45 48 50 50 49 47 45 44 43 42 42 43 44 46 48 50 50 50 51 51 52 52 52 52 51 49 45 42 40 38 37 36 35 34 33 32
15 15 16 18 22 25 25 25 25 24 20 16 15 14 14 13 14 16 15 14 15 19 24 29 31 35 41 47 49 49 49 47 45 44 42 41 41 42 42 43 45 47 48 49 51 51 51 52 53 52 51 51 49 48 47 45 44 42 41 40 38 36 34
13 13 15 17 21 24 25 25 26 23 19 16 13 12 13 13 13 14 14 13 11 13 19 28 33 37 44 50 49 48 48 47 44 43 42 41 41 41 42 43 45 46 47 48 50 51 51 50 50 49 47 47 47 46 45 44 42 43 43 42 39 37 35
10 12 14 16 21 24 24 25 27 24 21 18 14 11 12 14 14 14 14 12 10 10 14 24 34 38 43 47 47 46 46 45 43 42 42 41 41 40 41 44 45 45 46 47 49 50 49 49 47 46 45 44 44 43 42 41 39 40 40 40 39 36 34
8 10 13 14 17 22 24 27 29 27 24 22 18 13 12 13 13 13 14 13 10 11 13 18 26 33 38 41 45 46 46 45 42 40 39 39 40 40 41 44 45 45 45 47 48 48 47 47 45 44 42 42 41 40 40 39 37 36 36 36 35 33 31
Wind_Direction
188 191 194 196 194 193 195 198 196 194 194 194 193 194 196 198 199 200 202 203 205 205 205 205 207 208 209 210 210 210 211 212 211 212 214 216 216 214 211 209 209 212 215 219 223 224 222 220 220 217 213 212 217 217 213 209 204 202 201 197 201 211 221
188 191 194 196 194 193 193 195 195 193 194 195 194 194 196 198 200 201 203 205 206 207 207 206 207 209 210 211 212 213 213 214 215 215 216 218 219 220 219 218 218 219 221 222 225 228 229 228 228 227 220 213 215 220 221 218 214 210 211 209 209 216 222
188 191 193 194 193 191 190 191 193 193 194 196 196 196 197 198 201 203 204 206 208 208 207 207 208 209 211 211 213 215 215 216 217 218 218 219 220 221 223 224 225 226 226 226 225 226 228 229 231 232 231 225 217 218 221 222 220 217 219 219 216 218 222
190 193 193 193 193 192 191 191 193 194 195 197 199 199 199 200 201 203 206 207 207 207 207 208 209 209 210 211 212 215 217 217 218 219 220 221 221 222 223 225 227 228 229 229 228 227 227 228 229 231 232 234 229 223 222 223 224 222 222 224 221 220 221
192 193 191 193 193 193 193 192 191 193 194 196 199 201 201 201 202 203 206 207 208 209 210 209 209 210 211 212 214 216 218 219 219 220 221 222 222 223 224 226 227 228 229 230 230 229 228 227 226 226 228 232 233 230 227 225 227 226 225 227 225 223 222
189 190 189 191 193 193 194 193 192 193 194 195 197 199 199 200 202 203 205 207 208 209 209 209 210 212 213 214 215 216 218 219 220 221 222 223 223 223 225 227 228 229 229 229 230 230 229 229 227 226 226 229 231 232 230 227 226 228 228 229 230 227 226
187 189 191 191 192 193 194 195 196 196 197 198 199 200 200 200 201 203 205 207 208 208 209 210 210 212 214 215 216 217 218 219 220 222 222 223 224 225 226 227 229 230 231 230 230 230 229 229 229 229 228 229 231 232 231 227 226 228 228 229 231 230 229
189 188 189 190 191 193 194 196 196 196 196 198 199 201 201 201 201 203 205 207 208 208 209 211 211 212 215 217 217 218 219 220 221 222 223 223 223 225 226 227 228 230 231 231 230 229 228 228 229 231 231 231 233 235 234 230 226 227 229 230 232 231 230
188 187 188 190 191 194 196 197 196 195 195 194 196 198 198 199 200 201 204 206 207 208 210 211 212 213 215 217 219 220 220 221 221 221 222 222 223 225 225 226 227 228 229 230 230 229 228 227 227 230 231 232 234 236 237 235 229 226 229 231 233 232 230
186 186 186 187 189 192 193 195 195 194 196 196 195 197 198 199 199 199 202 205 207 209 210 211 212 213 215 217 220 221 220 220 220 220 221 222 223 224 225 225 226 226 227 228 229 229 229 227 226 228 230 231 233 235 237 237 233 229 229 232 234 233 232
184 185 188 187 188 190 190 191 194 195 199 199 198 199 200 201 201 200 202 206 209 210 210 210 211 213 215 217 219 219 219 220 219 219 220 222 223 224 224 225 225 224 225 225 226 228 228 227 225 226 228 230 233 235 236 237 236 232 231 233 235 235 235
183 184 189 190 189 190 190 192 193 195 199 200 200 202 203 204 205 204 205 207 211 213 213 212 211 212 214 215 216 217 218 219 219 219 220 221 223 224 224 224 224 223 223 223 224 224 226 227 226 225 227 229 232 235 235 236 236 234 233 233 236 238 239
183 186 190 193 193 191 190 192 194 195 199 201 201 204 206 207 207 207 208 210 212 215 215 215 212 211 212 214 215 217 218 218 219 220 220 221 223 224 223 223 223 223 222 222 222 222 222 225 226 226 227 228 231 234 235 236 235 234 234 234 235 238 240
119 178 189 191 195 194 188 188 191 194 198 201 202 205 208 209 209 209 210 211 212 214 215 216 214 212 212 213 215 218 218 219 220 219 220 221 222 222 222 222 221 222 223 222 222 222 221 223 225 227 228 229 231 233 234 235 234 233 233 234 235 238 240
53 63 54 60 123 181 186 187 190 193 197 200 203 205 207 209 209 210 210 211 213 214 216 216 215 214 213 212 216 220 219 218 219 219 219 219 220 221 221 221 220 220 222 222 222 222 221 222 225 227 228 229 230 231 233 233 233 233 234 234 235 237 239
40 42 38 43 54 76 123 170 189 196 198 199 202 204 206 208 209 210 211 212 212 214 217 216 215 214 214 214 217 219 219 218 218 218 218 219 220 220 220 221 219 218 219 222 223 222 220 220 223 225 227 229 229 229 231 232 233 234 235 236 238 239 241
27 30 32 38 44 49 53 54 59 177 201 201 201 202 204 206 208 209 212 214 213 214 217 218 217 216 216 216 217 218 218 218 218 218 218 219 220 221 220 219 219 217 218 221 223 223 220 218 220 223 226 228 230 230 230 232 233 234 235 237 239 240 242
21 21 23 30 34 36 42 44 41 34 24 215 203 198 197 200 204 207 209 211 211 212 215 220 221 221 221 219 217 218 218 218 218 218 218 219 220 221 219 217 217 216 216 219 222 223 221 218 217 221 225 227 229 231 232 233 234 235 235 236 238 240 242
21 17 15 19 23 26 30 34 34 30 24 14 210 199 197 197 199 204 207 208 207 206 210 219 225 227 226 223 220 219 219 219 219 219 219 219 220 220 219 216 215 216 216 217 220 222 222 220 217 218 222 226 228 231 233 235 235 235 236 236 237 239 241
17 13 10 9 8 11 21 28 23 16 15 18 21 199 203 203 202 203 208 210 210 211 216 224 231 234 233 227 222 221 220 220 220 220 220 220 219 219 219 217 215 216 216 215 217 219 221 222 219 217 219 225 228 231 234 236 237 236 236 235 235 237 239
12 7 4 2 358 358 6 16 9 359 4 19 25 29 207 210 210 211 215 216 216 219 223 227 228 229 232 230 224 221 221 222 222 222 220 220 219 219 219 218 216 215 215 214 215 218 221 222 221 218 218 221 227 231 234 237 239 239 237 236 235 235 237
7 1 357 355 353 349 349 347 339 338 341 345 360 20 38 219 224 232 235 227 223 225 227 228 227 223 222 225 223 220 221 223 223 222 221 219 219 219 219 219 217 215 214 214 215 218 220 222 222 221 218 219 223 228 232 236 239 241 240 239 238 236 237
1 356 351 349 348 343 338 334 330 327 323 321 325 316 277 262 253 253 244 231 226 226 226 227 227 223 220 222 221 218 219 221 222 222 221 219 218 219 219 219 218 216 214 213 214 217 219 221 222 223 221 219 220 224 229 233 237 240 241 242 242 239 237
351 349 347 345 342 338 334 330 328 325 320 315 312 301 281 262 253 255 248 235 231 230 227 228 229 228 226 226 224 219 218 219 220 221 221 220 219 220 220 219 219 217 214 213 214 216 219 221 222 223 223 222 221 222 226 229 234 237 240 242 243 242 240
347 344 343 343 339 335 332 327 322 318 315 313 307 299 286 265 252 251 245 239 239 237 231 229 231 231 229 227 225 222 220 219 218 218 220 222 221 220 220 219 219 218 215 214 214 216 218 220 221 221 223 224 224 224 225 227 230 234 237 239 241 241 241
350 346 343 341 336 330 327 323 320 317 313 311 308 302 293 277 264 258 246 238 242 244 235 229 230 233 232 227 223 223 221 219 218 217 218 221 223 221 220 220 219 218 217 215 215 215 217 219 221 221 222 224 225 226 226 227 228 230 233 235 237 238 239
352 348 343 340 334 328 321 315 315 316 312 309 306 301 299 290 274 265 254 242 242 244 240 237 237 236 233 227 224 223 222 219 218 218 218 220 222 220 219 219 219 218 218 216 215 215 215 218 221 222 222 224 225 226 228 229 230 230 231 233 235 237 237
351 347 342 337 332 329 322 312 309 309 308 308 306 300 298 295 283 271 262 253 244 238 238 244 246 237 229 226 224 224 222 219 218 219 218 219 220 219 218 219 219 218 218 217 216 215 215 216 219 221 222 224 225 227 229 231 233 233 233 233 235 237 237
353 350 344 336 329 329 327 318 312 309 308 311 309 299 294 294 289 282 272 260 247 236 235 247 251 237 227 225 225 225 224 221 218 218 217 217 219 219 218 217 218 218 218 217 216 216 215 216 217 220 222 223 226 228 229 231 233 236 237 237 237 238 238
353 351 348 339 332 330 327 322 319 316 314 316 310 299 298 302 298 291 278 262 249 241 239 247 250 238 228 226 227 227 226 223 219 218 217 217 218 218 217 217 217 217 218 217 216 216 215 215 216 218 220 223 225 227 228 230 232 234 237 239 239 239 239
350 352 351 344 337 333 328 325 328 326 321 318 312 301 298 302 301 294 279 262 252 249 245 244 244 239 232 228 227 226 224 222 219 218 218 217 218 218 217 216 216 217 218 218 217 216 216 215 215 216 218 221 223 226 227 228 229 231 235 238 240 240 239
346 350 353 348 341 337 335 334 335 332 325 321 320 314 305 301 301 298 285 267 256 253 249 241 238 237 235 232 229 225 222 219 217 217 217 217 218 219 219 217 217 217 218 218 217 217 217 216 216 216 217 219 221 224 227 228 228 230 233 235 237 239 239
341 348 357 358 351 346 346 344 341 338 332 328 330 327 315 306 302 298 288 271 256 252 251 243 234 233 236 235 228 221 217 215 215 215 215 216 217 218 218 218 218 219 218 218 217 217 217 217 217 217 217 218 219 221 224 227 227 229 231 233 235 238 240
336 345 357 1 355 352 352 349 345 342 338 335 336 332 321 315 310 302 291 274 256 249 247 241 233 233 235 232 223 216 213 213 214 213 213 214 216 217 218 218 219 220 221 220 218 218 217 217 218 218 219 219 219 218 220 222 225 228 231 233 235 238 239
331 343 358 5 359 355 355 354 350 346 342 341 340 332 323 323 319 308 298 282 260 245 239 236 236 236 232 223 215 212 211 212 212 212 212 214 216 218 220 221 222 223 223 223 222 221 219 218 218 219 220 220 220 220 219 220 224 229 234 237 239 241 242
328 338 354 8 6 357 353 355 356 352 348 345 341 330 328 331 322 309 303 292 269 245 229 224 225 226 221 213 208 208 208 209 210 211 213 214 216 218 221 223 225 226 225 224 224 224 223 223 223 223 223 223 224 225 226 228 231 232 233 235 238 241 244
329 343 352 8 13 4 358 360 2 1 358 353 344 331 333 341 330 313 308 298 273 247 226 216 212 210 208 206 204 204 204 205 206 210 213 215 215 217 220 223 225 226 226 226 226 225 225 225 226 226 226 225 226 228 230 233 235 233 232 234 236 240 244
313 339 348 3 13 10 6 6 7 7 4 1 354 342 340 346 341 324 317 309 276 239 225 218 209 202 199 198 199 200 201 201 202 205 210 214 215 217 221 223 224 225 226 225 225 225 225 225 225 226 227 227 229 230 230 232 233 234 235 235 237 239 243